STARLINK-1280, 45388

Orbit data source: Space-Track

STARLINK-1280, 45388 is a payload satellite owned by SpaceX/Seattle (US) in LEO that was launched on Wed, 18 Mar 2020 UTC via an FALCON 9 launch vehicle from the Air Force Eastern Test Range (AFETR). Payload-class satellites include a variety of spacecraft equipped with specific instruments for various scientific and technological missions. These include communications satellites like Starlink; space stations such as the ISS; scientific satellites like the Hubble; Earth observation satellites from companies like Planet Labs, Umbra, and HawkEye 360; GPS; miniature CubeSats for education and research; and military/defense satellites.

Loading next visibility...
Identifier
45388, 2020-019AE
Orbit
LEO
Country
Flag of USUS
Related business
Manufacturer
SpaceX/Seattle
Mission
Partially operational Commercial Communications
Bus & Motor
STARLINK, Unknown motor
Mass
260 kg wet, ~248 kg dry
Launch date (UTC)
2020-03-18 (6 years ago)
Launch vehicle
FALCON 9
Launch site
Air Force Eastern Test Range (AFETR)
Object type
Payload
Rocket body
Debris
Shape & HBR
Box + 1 Pan, 10.1 m
Radar Cross Section
13.562 m², Large (>1 m²)

Expand to show TLE details & history
Last TLE update: 20 hours ago

TLE from 20 hours ago
0 STARLINK-1280
1 45388U 20019AE  26125.58624561  .00071080  00000-0  50574-3 0  9993
2 45388  53.0383 201.4259 0005097 354.4034   5.6926 15.73221516339274
Epoch: 2026-05-05T14:04Z
TLE epoch observation values (Epoch: 2026-05-05T14:04:11.620Z)
Latitude
-0.00003°
Longitude
126.9185°
Altitude
347.188 km
Speed
7.704 km/s
True Right ascension
13h 25m 42s
True Declination
0° 00' 00"
Sunlit
Object was in full shadow at epoch
Visualization orbit readout
Latitude
Unknown
Longitude
Unknown
Altitude
Unknown
Speed
Unknown
Apparent Right ascension
Unknown
Apparent Declination
Unknown
Sunlit
N/A
Visualization observer readout
Local Sidereal Time
17:31:08
Azimuth
Unknown
Elevation
Unknown
Doppler factor
Unknown
Orbital elements
Apogee altitude
353.407 km
Perigee altitude
346.549 km
Semi-major axis
6,728.115 km
Eccentricity
0.00051
Inclination
53.0383°
RAAN
201.4259°
Arg. of periapsis
354.4034°
True anomaly
5.6984°
Mean anomaly
5.6926°
Eccentric anomaly
5.6955°
Mean motion
3.93281 °/min
Orbital period
91.54 mins
BSTAR
0.00050574
Loading maneuver chart data...
Computing Atmospheric mass density...

Documentation

Showing up to 5 results
|